Location: Trebic
(49.2170°N, 15.8830°E)
Time: 00:57:06
(UTC+01:00)

Transit 4A - Pass Details

Date: 01 November 2020
Orbit: 862 x 982 km, 66.8° (Epoch: 28 November)

Event Time Altitude Azimuth Distance (km) Brightness Sun altitude
Rises 20:33:54 0° 321° (NW) 3,693 11.8 -38.9°
Reaches altitude 10° 20:36:58 10° 334° (NNW) 2,746 10.8 -39.3°
Enters shadow 20:39:27 20° 353° (N) 2,125 10.0 -39.7°
